Regional Weather Roundup
Issued by NWS Wakefield, VA

Home | Current Version | Previous Version | Graphics & Text | Print | Product List | Glossary On
Versions: 1 2 3 4 5 6 7 8 9 10 11 12 13 14 15 16 17 18 19 20 21 22 23 24 25 26 27 28 29 30 31 32 33 34 35 36 37 38 39 40 41 42 43 44 45 46 47 48 49 50
421
ASUS41 KAKQ 131015
RWRAKQ

REGIONAL WEATHER ROUNDUP
NATIONAL WEATHER SERVICE WAKEFIELD VA
500 AM EST SAT FEB 13 2016

Note: "fair" indicates few or no clouds below 12,000 feet with no
significant weather and/or obstructions to visibility. * = Denotes
station may not report precipitation (e.g., rain,snow,etc.),
thunder or fog.

VAZ042-051-052>054-056-131100-
NORTHERN VIRGINIA

CITY           SKY/WX    TMP DP  RH WIND       PRES   REMARKS
WASH NATIONAL  FAIR      24   5  44 W23G35    30.09R WCI   9
DULLES         MOCLDY    21   4  47 W21G29    30.10R WCI   5
FORT BELVOIR   FAIR      23   2  39 W17G29    30.09R WCI  10
QUANTICO       FAIR      24   3  40 NW14G29   30.12R WCI  12
FREDERICKSBRG* FAIR      24   7  48 NW14G28   30.11R WCI  12
STAFFORD*      FAIR      22   4  46 NW15G24   30.15R WCI   9
WARRENTON      MOCLDY    23   6  49 NW14G26   30.11R WCI  10
CULPEPER*      CLOUDY    22   1  40 NW8G18    30.13R
MANASSAS*      FAIR      21   7  53 W9        30.12R
LEESBURG*      CLOUDY    23  12  63 W20G28    30.09R WCI   8
WINCHESTER     FAIR      19   7  58 NW21G30   30.08R WCI   3
FRONT ROYAL*   FAIR      19   1  45 NW13G22   30.08R WCI   7
LURAY*         FAIR      19   1  45 NW23G29   30.10R WCI   2
$$

VAZ048-049-060>072-079>083-131100-
CENTRAL AND SOUTH CENTRAL VIRGINIA

CITY           SKY/WX    TMP DP  RH WIND       PRES   REMARKS
RICHMOND       FAIR      27  15  61 NW21G28   30.08R WCI  13
CHESTERFIELD*  CLOUDY    28   3  34 N7        30.08R
PETERSBURG*    MOCLDY    26  13  58 W5        30.08R
HANOVER        FAIR      26  11  52 NW15G23   30.10R WCI  14
TAPPAHANNOCK*  FLURRIES  27  19  73 NE10G18   30.09R WCI  17
QUINTON*       FAIR      20  18  92 NW7       30.07R
CHARLOTTSVILLE CLOUDY    22  -3  33 VRB6G17   30.11R
GORDONSVILLE*  FAIR      23  -2  33 W3G20     30.12R
ORANGE*        FAIR      25  -2  30 W13G21    30.14R WCI  13
LOUISA*        MOCLDY    25   3  39 NW14G26   30.09R WCI  13
BUMPASS*       FAIR      24  11  58 NW8       30.09R
FARMVILLE*     FAIR      29   1  29 NW9G25    30.10R
CREWE*         CLOUDY    29   5  36 NW17G23   30.08R WCI  17
FORT PICKETT*  PTSUNNY   28   7  40 NW9       30.07R
CHASE CITY*    FAIR      30   9  41 NW9G16    30.09R
CLARKSVILLE*   PTSUNNY   30  10  43 NW12G21   30.09R WCI  21
SOUTH HILL*    MOCLDY    29  12  50 NW3       30.14R
LAWRENCEVILLE* CLOUDY    29  19  66 NW3       30.07R
EMPORIA*       CLOUDY    28  19  69 W5        30.10R
$$

VAZ088>098-131100-
SOUTHEAST VIRGINIA

CITY           SKY/WX    TMP DP  RH WIND       PRES   REMARKS
NORFOLK        MOCLDY    29  20  69 NW3       30.05R
VIRGINIA BEACH FAIR      29  19  66 N8        30.04R
NORFOLK NAVAL  MOCLDY    29  19  66 N10       30.07R WCI  20
WEST POINT*    MOCLDY    24  20  86 CALM      30.08R
SALUDA*        PTSUNNY   23  19  87 W5        30.06R
NEWPORT NEWS   FAIR      22  19  89 W3        30.06R
LANGLEY AFB    FAIR      22  18  82 W5        30.05R
FORT EUSTIS    MOCLDY    28  21  76 VRB3      30.04R
WILLIAMSBURG*  FAIR      25  21  86 W5        30.07R
HR EXEC AP*    CLOUDY    21  18  86 CALM      30.08R
FRANKLIN*      CLOUDY    25  21  84 CALM      30.08R
US460-WAKEFLD  FAIR      19  16  88 CALM      30.07R
$$

VAZ020-022-025-037-045-131100-
WEST CENTRAL AND SOUTHWEST VIRGINIA

CITY           SKY/WX    TMP DP  RH WIND       PRES   REMARKS
STAUNTON*      CLOUDY    22  -1  36 NW17G24   30.12R WCI   8
WAYNESBORO*    CLOUDY    17  -6  35 NW15G29   30.08R WCI   3
HOT SPRINGS VA CLOUDY     7  -2  67 NW24G36   29.83S WCI -15
LYNCHBURG      FAIR      22  -1  36 NW15G29   30.12R WCI   9
DANVILLE       MOCLDY    30   8  39 NW13G21   30.12R WCI  20
SOUTH BOSTON*  CLOUDY    30  10  43 NW16G24   30.11R WCI  19
MARTINSVILLE   MOCLDY    25   7  46 N10G23    30.14R WCI  15
ROANOKE        FAIR      20   1  43 W22G32    30.12R WCI   3
BLACKSBURG     CLOUDY    17   7  64 W13G32    30.10R WCI   4
DUBLIN*        MOCLDY    19   6  57 NW25G45   30.08R WCI   1
MARION*        LGT SNOW  18  10  70 W25G40    30.08R WCI   0
HILLSVILLE*    CLOUDY    17  10  71 NW16G25   30.00R WCI   2
RICHLANDS*     CLOUDY    15   3  60 NW9G24    30.13R
WISE*          CLOUDY    18   5  57 W13G20    30.17S WCI   4
ABINGDON*      CLOUDY    20  10  63 N17G25    30.18R WCI   6
$$

MDZ021>025-VAZ099-100-131100-
SOUTHERN MARYLAND AND THE DELMARVA PENINSULA

CITY           SKY/WX    TMP DP  RH WIND       PRES   REMARKS
PATUXENT RIVER CLOUDY    26  10  50 NW21G33   30.05R WCI  12
BAY BRIDGE APT LGT SNOW  23  19  86 NW17G29   30.06R WCI   9
LEONARDTOWN    PTCLDY    25  10  54 W16G23    30.08R WCI  12
DOVER          MOCLDY    24  17  74 W12       29.98R WCI  13
GEORGETOWN     CLEAR     21  15  78 CALM      30.01R
EASTON         PTCLDY    26  12  54 NW20G40   30.07R WCI  13
CAMBRIDGE      PTCLDY    27  14  59 NW10G22   30.03R WCI  17
SALISBURY      CLEAR     24  14  65 W8        30.01R
OCEAN CITY     CLEAR     21  16  81 NW5       30.01R
WALLOPS ISLAND FAIR      23  14  68 W6        30.03R
ACCOMACK*      FAIR      28  14  54 NW10G17   30.03R WCI  19
$$

NCZ012>017-030>032-131100-
NORTH CENTRAL AND EASTERN NORTH CAROLINA

CITY           SKY/WX    TMP DP  RH WIND       PRES   REMARKS
ROANOKE RAPIDS FAIR      30  19  64 NW6       30.08R
RALEIGH        PTCLDY    32  15  49 VRB5      30.10R
ELIZABETH CITY CLOUDY    25  22  88 W6        30.07R
AHOSKIE*       NOT AVBL
EDENTON*       MOCLDY    30  25  83 N5        30.08R
CURRITUCK*     NOT AVBL
KILL DEVIL HLS NOT AVBL
MANTEO         NOT AVBL
CAPE HATTERAS  CLEAR     33  27  78 NW8G18    30.05R
TARBORO*       FAIR      27  22  84 NW3       30.10R
GOLDSBORO      CLEAR     27  27 100 W5        30.08R
WASHINGTON     CLEAR     26  24  93 CALM      30.08R
GREENVILLE     CLEAR     28  27  93 CALM      30.10R
NEW BERN       CLEAR     30  26  85 W7        30.10R
WILMINGTON     CLEAR     30  27  88 NW5       30.11R
$$

VAZ048-131100-
ELSEWHERE

CITY           SKY/WX    TMP DP  RH WIND       PRES   REMARKS
HARRISBURG PA  PTCLDY    20   8  60 NW18G31   30.01R WCI   5
BALTIMORE      PTCLDY    21  11  65 NW18G25   30.04R WCI   6
ANNAPOLIS      LGT SNOW  24  16  71 NW10G21   30.06R WCI  14
ANDREWS AFB    MOCLDY    23   4  43 NW15G31   30.06R WCI  10
PHILADELPHIA   PTCLDY    22  12  65 W15       29.98R WCI   9
HENDERSON NC   PTCLDY    30  11  45 NW12G18   30.09R WCI  21
GREENSBORO     CLEAR     30   7  37 NW18G31   30.08R WCI  18
ROCKY MOUNT    PTCLDY    29  21  72 NW5       30.09R
$$

VAZ100-131100-
MARINE

STATION/POSITION TIME  TEMP    WIND        PRES    WAVE   SWELL
                       AIR SEA DIR/SP/G            HT/PER HT/PER
                 (UTC) (F)     (DEG/KT/KT) (MB)    (FT/S) (FT/S)
BRANDYWINE LGT   0900   26     300/ 21/ 24 1014.9R
CAPE MAY NJ      0900   27 38  290/ 19/ 27 1014.5R
LEWES DE         0900   25 38  280/ 10/ 13 1015.3R
15NM E FENWICK I 0950   29 42              1015.3R   4/ 4
OCEAN-CITY-INLET 0900   24 40  310/  5/  6 1015.0R
WACHAPREAGUE VA  0900   29 34  310/  3/  9 1016.4R
THOMAS POINT MD  1000   24 36  310/ 22/ 24 1018.0R
GOOSES REEF MD   1000   28 37  310/ 25/ 31 1018.1R   2/ 3
COVE POINT MD    0900   26     320/ 13/ 23 1017.2R
SOLOMONS ISLAND  0900   26 39  290/ 13/ 22   N/A
BISHOPS HEAD MD  0900   28 32  310/ 18/ 24 1015.5R
PINEY POINT MD   0900          360/ 25/ 30   N/A
POTOMAC MD       1000   25 38  330/ 21/ 27 1017.1R   2/ 3
CAMBRIDGE MD     0900   29 36  300/ 14/ 19 1015.3R
LEWISETTA VA     0900   27 38  300/  5/  6 1016.6R
RAPPAHANNOCK LGT 0900          310/ 15/ 16 1016.8R
STINGRAY PT      1000   29 39  310/ 12/ 14 1017.3R
YORK RVR RNG VA  0900   29     340/ 12/ 14 1016.3R
YORKTOWN VA      0900   29 41  330/ 10/ 12 1016.8R
JAMESTOWN VA     1000   27 41  310/  6/  8   N/A     0
DOMINION TERM VA 0900   29     340/  2/  6 1017.2R
KIPTOPEKE VA     0900      39  330/ 16/ 19   N/A
CHES BAY BRIDGE  0900   31 40  330/ 17/ 22 1016.3S
CAPE HENRY VA    0900   31     340/ 18/ 24   N/A
CHESAPEAKE LGHT  0900   31     340/ 18/ 22 1017.1R
WILLOUBY STN VA  0900   29     330/ 13/ 15 1017.9R
CAPE HENRY BUOY  0928      42                N/A     3/ 3
1ST LANDING BUOY 1000      40                N/A     2/ 3
CAPE CHARLES BUO 0926      42                N/A     2/ 3   2/10
OFFSHORE WE BUOY 0921      44                N/A     3/ 4   2/ 9
64NM E OF VA BCH 0950   35 48  340/ 21/ 27 1015.7R   5/ 5
DUCK PIER NC     0900   29     310/ 13/ 19 1015.8R
44100 DUCK FRF   0924      45                N/A     3/ 4
44056 DUCK FRF   0911      42                N/A     2/ 3
OREGON INLET NC  0900   31 40  310/  9/ 11 1016.8R
HATTERAS NC      0900   35 45  310/ 19/ 22 1016.3R
DIAMOND SHLS NC  0950   40 71  330/ 21/ 25 1016.8R   5/ 9   3/ 9
$$




USA.gov is the U.S. government's official web portal to all federal, state and local government web resources and services.